Date,TemperatureHighF,TemperatureAvgF,TemperatureLowF,DewpointHighF,DewpointAvgF,DewpointLowF,HumidityHigh,HumidityAvg,HumidityLow,PressureMaxIn,PressureMinIn,WindSpeedMaxMPH,WindSpeedAvgMPH,GustSpeedMaxMPH,PrecipitationSumIn
2013-1-1,47.3,40.8,34.9,45.7,38.2,32.8,95,90,80,30.05,29.50,7,1,11,0.06
2013-1-2,50.9,43.1,34.0,49.2,41.2,31.9,95,93,88,30.32,30.05,9,1,11,0.00
2013-1-3,54.0,50.5,46.2,50.7,48.3,44.6,96,92,88,30.61,30.32,7,1,8,0.02
2013-1-4,51.6,49.1,46.6,47.4,45.5,43.9,91,87,82,30.64,30.59,7,1,9,0.00
2013-1-5,52.0,47.4,46.0,49.5,45.5,43.8,95,93,89,30.59,30.55,5,0,8,0.00
2013-1-6,47.1,46.5,45.7,46.0,45.0,44.1,96,95,93,30.48,30.38,3,1,7,0.00
2013-1-7,48.0,46.0,44.2,45.8,44.2,42.6,95,93,91,30.38,30.23,5,0,5,0.00
2013-1-8,52.5,49.3,43.5,48.1,46.5,41.4,94,90,84,30.26,30.17,6,1,12,0.04
2013-1-9,48.0,33.3,28.4,46.7,31.5,26.6,95,93,92,30.17,30.06,1,0,2,0.00
2013-1-10,38.5,33.7,28.0,36.6,32.1,26.3,95,94,92,30.06,29.92,2,0,3,0.00
2013-1-11,45.5,36.6,31.3,42.4,34.7,29.8,96,93,87,30.07,29.96,5,0,5,0.00
2013-1-12,41.5,37.6,31.8,36.7,34.6,30.3,96,89,75,29.96,29.83,15,2,16,0.16
2013-1-13,38.8,34.8,31.6,35.5,30.8,27.6,91,85,79,30.13,29.95,6,1,7,0.00
2013-1-14,36.1,33.1,30.4,34.8,31.0,27.5,95,92,87,30.09,29.62,5,1,6,0.10
2013-1-15,35.2,29.9,24.6,33.0,27.7,22.6,94,92,88,29.86,29.62,5,0,6,0.00
2013-1-16,27.7,24.4,21.9,25.9,22.5,19.7,93,92,91,30.01,29.82,0,0,0,0.00
2013-1-17,34.9,29.3,21.9,33.6,27.5,20.0,95,93,87,30.07,29.86,3,0,6,0.00
2013-1-18,33.6,31.2,29.5,30.0,28.3,27.2,92,89,84,29.86,29.41,12,2,12,0.00
2013-1-19,33.6,31.3,30.0,31.5,29.0,27.2,93,91,86,29.47,29.39,8,1,12,0.00
2013-1-20,33.6,31.1,29.5,31.0,28.6,26.6,93,90,86,29.45,29.27,9,1,12,0.00
2013-1-21,38.1,30.7,23.5,34.4,28.3,21.6,94,91,83,29.49,29.25,2,0,2,0.02
2013-1-22,37.9,29.4,19.9,36.6,27.4,17.7,96,92,89,29.66,29.49,6,1,8,0.06
2013-1-23,37.7,35.0,33.8,33.9,32.1,31.2,92,89,85,29.79,29.66,7,1,8,0.06
2013-1-24,36.1,33.5,31.8,32.6,30.4,28.1,91,88,84,30.14,29.79,3,0,5,0.00
2013-1-25,37.8,34.0,12.0,35.2,30.3,8.6,91,86,80,30.11,29.54,7,2,11,0.00
2013-1-26,46.9,40.8,34.3,42.6,38.2,32.8,95,91,80,29.83,29.53,10,2,10,0.16
2013-1-27,49.8,44.0,36.3,48.3,40.1,33.7,96,86,67,29.62,29.27,14,3,17,0.34
2013-1-28,49.8,42.5,32.7,47.6,40.0,30.9,95,91,83,29.81,29.51,13,3,17,0.22
2013-1-29,56.3,52.7,48.0,53.5,50.3,46.0,95,92,85,29.65,29.55,14,4,16,0.08
2013-1-30,53.4,48.7,43.2,51.8,43.5,37.6,95,83,64,30.03,29.50,15,5,17,0.20
2013-1-31,52.0,47.0,42.6,44.9,41.1,38.0,92,80,68,30.04,29.79,13,4,18,0.10
2013-2-1,46.0,41.4,34.9,42.4,38.2,32.8,93,88,82,29.84,29.45,6,0,8,0.26
2013-2-2,42.1,36.8,29.1,37.8,31.6,24.6,95,82,69,30.24,29.59,9,1,9,0.00
2013-2-3,48.0,40.4,27.1,45.5,36.9,23.5,93,87,83,30.25,29.90,14,2,14,0.00
2013-2-4,51.4,47.2,41.5,46.8,40.3,35.4,92,77,59,29.94,29.72,13,4,14,0.00
2013-2-5,44.2,39.3,33.1,37.5,32.7,28.7,91,78,59,29.72,29.33,14,4,16,0.12
2013-2-6,43.9,39.5,33.6,37.6,33.9,27.2,92,81,70,30.06,29.36,10,2,14,0.10
2013-2-7,44.4,35.8,29.1,34.5,30.2,24.3,89,80,67,30.11,29.98,5,1,5,0.02
2013-2-8,45.0,35.9,29.1,36.3,32.0,27.1,93,86,71,30.14,30.01,5,1,5,0.00
2013-2-9,40.8,37.0,33.4,37.4,34.0,30.0,93,89,86,30.15,29.84,5,0,5,0.04
2013-2-10,41.5,38.2,33.8,39.9,36.5,32.3,95,94,92,29.84,29.25,12,3,14,0.34
2013-2-11,35.8,34.0,32.5,34.2,32.4,31.0,95,94,93,29.75,29.27,8,1,9,0.24
2013-2-12,37.4,34.5,32.7,33.0,31.1,28.7,93,87,83,30.12,29.76,7,1,9,0.00
2013-2-13,39.4,35.1,31.8,37.5,30.7,28.4,93,84,73,30.19,29.96,8,2,12,0.00
2013-2-14,55.2,45.7,37.6,47.8,41.5,34.6,96,86,69,29.97,29.73,8,2,14,0.00
2013-2-15,53.2,40.3,31.5,42.6,35.4,29.4,94,83,58,30.19,29.97,8,0,8,0.00
2013-2-16,55.0,42.5,32.5,44.6,36.8,29.7,91,81,57,30.23,30.17,3,0,5,0.00
2013-2-17,50.5,37.8,27.0,42.1,33.2,24.9,94,84,62,30.19,30.08,8,1,10,0.00
2013-2-18,50.7,36.7,27.1,40.7,32.3,25.1,95,85,64,30.13,30.08,9,1,11,0.00
2013-2-19,51.6,34.2,24.1,41.8,30.0,21.8,94,85,63,30.12,30.03,2,0,3,0.00
2013-2-20,44.4,37.2,27.7,38.8,32.5,25.3,94,84,69,30.24,30.08,9,2,9,0.00
2013-2-21,39.0,34.2,29.8,28.4,25.4,23.0,79,70,62,30.25,30.15,13,3,15,0.00
2013-2-22,38.8,34.2,31.8,28.4,24.9,22.8,73,69,63,30.15,30.09,9,2,13,0.00
2013-2-25,40.3,39.1,37.3,35.3,34.6,33.8,88,84,79,30.37,30.34,15,3,15,0.00
2013-2-26,41.4,39.4,36.1,39.2,37.0,33.5,93,91,88,30.54,30.36,7,1,8,0.00
2013-2-27,44.8,38.5,34.0,37.8,34.5,30.8,92,86,74,30.56,30.46,9,2,10,0.00
2013-2-28,49.8,39.7,32.9,40.4,34.8,30.2,91,83,69,30.47,30.32,8,1,8,0.00
2013-3-1,46.2,40.4,36.3,42.4,35.2,31.0,93,82,70,30.39,30.34,9,1,13,0.04
2013-3-2,45.1,37.0,25.0,35.2,30.4,22.2,90,77,67,30.39,30.26,3,0,5,0.00
2013-3-3,48.9,35.3,22.3,39.6,30.8,20.1,93,84,69,30.28,30.08,6,1,7,0.02
2013-3-4,55.0,38.2,27.0,42.2,33.1,24.7,94,83,61,30.08,29.73,9,1,10,0.00
2013-3-5,63.3,43.6,27.3,49.0,36.9,25.3,94,79,56,29.73,29.57,5,0,5,0.00
2013-3-6,60.1,49.2,39.2,47.9,42.2,34.9,86,77,63,29.57,29.48,3,0,5,0.00
2013-3-7,55.0,47.9,44.6,50.7,45.1,41.4,94,90,84,29.50,29.35,2,0,5,0.20
2013-3-8,52.3,49.3,46.9,50.1,47.4,45.0,94,93,91,29.54,29.36,2,0,4,0.30
2013-3-9,48.0,44.3,38.4,45.1,41.7,34.8,94,91,86,29.66,29.52,5,1,7,0.02
2013-3-10,41.7,37.2,33.6,36.2,32.7,28.7,89,84,78,29.73,29.64,13,2,16,0.00
2013-3-11,36.1,32.1,28.4,29.0,25.2,21.5,83,76,66,29.75,29.70,15,4,20,0.00
2013-3-12,45.7,34.7,27.7,30.5,24.7,20.4,83,68,48,29.82,29.73,20,4,20,0.00
2013-3-13,49.1,37.7,28.2,34.3,29.0,24.3,88,72,49,29.94,29.79,7,1,9,0.00
2013-3-14,28.6,27.0,25.0,24.9,23.9,22.2,89,88,86,29.97,29.94,0,0,1,0.00
2013-3-17,30.2,29.8,29.3,28.2,27.7,27.2,92,92,92,29.21,29.21,0,0,0,0.00
2013-3-18,53.4,37.5,26.8,47.1,34.9,24.8,95,90,76,29.35,29.20,6,0,8,0.20
2013-3-19,53.8,41.5,31.8,44.9,37.1,28.9,94,85,68,29.50,29.34,6,1,6,0.00
2013-3-20,51.4,40.2,31.8,41.6,36.1,29.2,93,85,68,29.99,29.50,5,1,7,0.00
2013-3-21,39.0,36.3,33.8,34.6,32.8,30.9,90,87,82,30.00,29.89,6,1,7,0.06
2013-3-22,48.0,40.6,36.3,39.7,35.7,33.7,90,83,71,29.89,29.70,10,3,14,0.18
2013-3-23,37.9,35.1,33.6,35.0,33.0,31.5,93,92,89,29.85,29.72,8,1,8,0.48
2013-3-24,34.3,33.1,32.4,32.3,29.2,26.2,92,86,74,29.93,29.84,8,2,9,0.00
2013-3-25,37.1,34.1,32.5,28.9,26.7,25.3,78,74,71,29.96,29.90,7,2,11,0.00
2013-3-26,33.4,32.7,32.5,26.8,26.0,25.5,78,76,75,29.93,29.90,7,2,12,0.00
2013-3-28,46.2,39.3,33.6,35.4,28.0,22.7,85,64,57,29.94,29.86,7,2,8,0.00
2013-3-29,48.9,36.5,24.4,32.9,26.2,19.6,86,67,47,29.91,29.78,7,1,8,0.00
2013-3-30,46.9,37.7,31.1,32.7,29.2,25.5,81,72,56,29.99,29.79,8,1,11,0.00
2013-3-31,48.7,36.5,23.2,34.7,26.9,20.4,91,70,49,30.01,29.92,7,1,8,0.00
2013-4-1,50.4,37.7,29.5,31.9,27.6,22.8,82,68,45,29.92,29.86,12,2,12,0.00
2013-4-2,55.2,39.9,28.6,34.0,26.5,17.2,86,62,33,30.10,29.92,10,2,13,0.00
2013-4-3,45.7,36.0,18.2,31.8,25.6,11.6,88,67,51,30.10,30.03,15,2,17,0.00
2013-4-4,40.8,35.7,31.8,34.0,28.4,24.8,84,75,64,30.03,29.92,13,3,20,0.02
2013-4-5,51.6,40.2,34.3,33.4,28.9,25.1,78,65,43,30.11,29.91,12,4,13,0.00
2013-4-6,60.0,42.3,27.6,37.3,30.1,24.1,90,65,35,30.26,30.10,7,1,9,0.00
2013-4-7,58.6,40.7,24.1,35.2,27.3,19.9,88,62,34,30.26,29.86,7,1,10,0.00
2013-4-8,58.0,45.9,37.2,38.2,32.2,27.8,79,60,40,29.87,29.54,13,2,13,0.00
2013-4-9,52.6,43.9,36.3,44.8,38.4,31.0,89,81,71,29.54,29.36,5,1,7,0.04
2013-4-10,57.4,48.7,38.1,45.3,41.1,34.6,91,76,63,29.71,29.41,7,2,8,0.18
2013-4-11,59.4,49.9,43.3,49.8,44.2,40.9,93,81,65,29.47,29.34,6,1,7,0.08
2013-4-12,57.7,48.2,41.2,51.0,44.8,38.8,94,88,75,29.74,29.28,8,2,9,0.34
2013-4-13,56.5,47.2,36.0,50.3,44.0,33.6,94,89,73,29.89,29.74,9,2,10,0.12
2013-4-14,71.2,58.5,49.8,54.2,50.3,45.3,94,75,54,29.95,29.87,12,3,20,0.02
2013-4-15,62.6,54.5,46.8,51.1,46.9,42.0,87,76,62,30.06,29.93,13,3,14,0.00
2013-4-16,64.6,54.3,46.2,49.6,45.3,42.1,91,73,47,30.08,29.89,13,3,14,0.00
2013-4-17,69.4,57.1,45.7,54.5,49.4,42.1,92,77,55,30.08,29.77,18,3,19,0.00
2013-4-18,61.2,50.8,44.4,47.1,40.7,34.3,81,69,48,30.08,29.79,16,5,18,0.12
2013-4-19,67.9,51.3,40.6,44.5,39.9,35.1,85,67,39,30.48,30.08,10,2,10,0.00
2013-4-20,68.7,48.4,31.3,41.0,32.8,27.2,89,59,30,30.53,30.36,6,1,8,0.00
2013-4-21,65.5,52.4,32.7,42.5,36.3,26.2,88,57,35,30.35,30.02,8,2,10,0.00
2013-4-22,64.2,50.8,39.4,46.9,42.4,36.4,91,75,46,30.02,29.94,9,2,16,0.00
2013-4-23,78.8,60.3,46.6,52.9,47.8,43.8,91,67,39,30.20,29.97,7,1,9,0.00
2013-4-24,73.6,59.0,45.0,55.9,49.6,41.1,90,72,53,30.25,30.18,7,1,10,0.00
2013-4-25,77.6,59.2,48.0,58.4,49.6,44.6,92,73,41,30.24,30.01,8,1,12,0.00
2013-4-26,61.3,50.3,39.4,47.8,39.3,30.4,89,68,43,30.03,29.89,7,1,8,0.12
2013-4-27,57.9,43.2,30.9,44.8,35.7,26.7,89,76,54,30.10,29.88,8,1,12,0.20
2013-4-28,58.4,43.7,28.0,43.8,34.2,25.2,92,72,41,30.09,29.89,9,2,14,0.00
2013-4-29,68.0,52.6,41.6,41.4,37.9,31.0,85,60,34,30.17,29.87,8,2,11,0.00
2013-4-30,69.7,50.6,33.6,42.9,36.5,28.7,88,62,34,30.30,30.16,8,1,10,0.00
2013-5-1,40.0,37.8,36.5,34.4,32.5,31.5,86,81,76,30.30,30.26,2,0,3,0.00
2013-5-2,77.2,63.7,44.2,40.5,33.0,27.5,57,33,24,30.21,30.14,12,1,12,0.00
2013-5-3,72.3,50.2,34.0,46.1,36.0,27.2,82,61,32,30.18,30.04,6,1,12,0.00
2013-5-4,70.3,54.6,41.7,50.9,41.4,34.9,86,63,34,30.13,29.98,12,2,14,0.00
2013-5-5,72.1,58.1,40.6,52.1,46.1,35.8,87,66,48,30.19,30.12,6,1,7,0.00
2013-5-6,75.4,55.2,48.0,53.8,45.9,38.5,83,72,46,30.16,30.06,2,0,5,0.00
2013-5-7,83.8,61.3,39.6,52.5,44.4,33.9,86,57,33,30.07,29.85,6,1,7,0.00
2013-5-8,66.9,57.3,46.2,54.5,48.5,40.1,86,73,57,29.84,29.68,13,2,13,0.02
2013-5-9,59.7,48.3,39.9,46.2,42.2,37.2,91,81,52,29.83,29.66,18,2,18,0.04
2013-5-10,68.7,56.5,47.6,49.9,46.6,42.8,88,71,47,29.92,29.67,13,4,14,0.02
2013-5-11,61.3,49.6,41.2,50.7,43.5,38.3,92,81,59,29.92,29.79,9,2,10,0.14
2013-5-12,66.0,56.1,43.7,49.3,46.0,41.0,90,71,45,30.02,29.89,10,3,12,0.16
2013-5-13,60.4,55.4,45.7,50.8,44.2,37.5,91,68,50,29.91,29.80,10,2,15,0.02
2013-5-14,58.1,49.1,42.6,46.5,41.3,37.8,84,75,57,29.82,29.55,8,2,10,0.04
2013-5-16,70.0,59.0,44.6,49.8,42.9,35.6,90,57,41,29.55,29.45,5,1,5,0.04
2013-5-17,60.6,49.6,37.2,47.9,41.1,33.4,89,73,58,29.75,29.55,7,1,7,0.00
2013-5-19,75.9,66.7,53.4,53.6,49.5,43.5,75,55,45,29.89,29.86,6,1,10,0.00
2013-5-20,68.0,57.7,50.7,57.9,51.2,45.1,85,79,69,29.89,29.84,6,1,8,0.00
2013-5-21,60.6,54.2,51.1,50.0,47.5,45.3,86,78,68,30.06,30.01,1,0,2,0.00
2013-5-22,69.4,51.3,45.0,49.0,41.3,34.7,86,70,41,30.07,30.02,3,0,6,0.00
2013-5-23,61.0,49.1,39.0,42.3,37.8,32.8,81,66,44,30.02,29.88,6,1,7,0.04
2013-5-24,53.8,45.7,41.5,46.1,39.9,33.9,90,80,67,30.01,29.65,12,2,17,0.30
2013-5-25,43.3,43.0,42.6,40.3,40.0,39.6,89,89,89,30.03,30.01,6,2,6,0.00
2013-5-26,74.5,62.5,50.2,46.8,41.4,37.3,61,47,37,30.03,29.97,3,1,5,0.00
2013-5-30,64.6,59.4,53.8,55.6,52.3,48.4,85,78,71,29.99,29.82,9,1,10,0.00
2013-5-31,79.4,63.9,52.3,60.9,52.8,47.9,86,69,47,30.11,29.98,8,1,8,0.00
2013-6-1,78.1,60.8,47.8,53.0,46.4,39.8,82,61,37,30.29,30.11,6,0,6,0.00
2013-6-2,73.0,58.9,43.3,49.9,43.9,37.9,86,60,40,30.43,30.29,3,0,5,0.00
2013-6-3,77.5,59.0,41.2,52.0,43.9,35.7,83,60,39,30.48,30.38,7,1,9,0.00
2013-6-4,76.4,53.9,42.1,48.9,41.4,34.9,78,65,38,30.41,30.19,8,1,9,0.00
2013-6-5,80.1,60.9,47.5,53.4,47.0,41.8,82,62,36,30.21,30.06,8,1,15,0.00
2013-6-6,80.2,63.0,47.1,57.1,48.8,41.8,83,62,41,30.17,30.10,7,1,8,0.00
2013-6-7,77.5,61.0,49.3,57.7,49.1,42.4,86,66,43,30.21,30.14,9,1,10,0.14
2013-6-8,72.1,59.4,47.1,53.1,46.7,41.9,83,64,46,30.20,30.05,8,2,10,0.00
2013-6-9,66.9,57.5,50.9,50.4,45.9,42.7,77,66,54,30.06,29.94,10,1,12,0.00
2013-6-10,70.5,57.7,46.7,50.3,45.0,40.2,78,63,48,29.99,29.93,2,0,4,0.00
2013-6-11,69.6,58.6,43.7,61.1,51.6,38.6,84,78,67,29.96,29.87,6,0,7,0.00
2013-6-12,64.2,59.4,55.0,58.6,55.6,50.5,91,87,81,29.88,29.79,12,2,12,0.06
2013-6-13,68.9,58.5,49.3,55.6,50.9,43.3,90,76,58,30.03,29.76,13,4,18,0.00
2013-6-14,72.7,59.2,45.1,55.6,48.3,41.6,90,70,43,30.05,29.89,6,1,12,0.00
2013-6-15,63.1,58.2,19.8,55.4,49.9,12.8,84,74,67,29.87,29.75,10,3,15,0.12
2013-6-16,57.4,52.9,50.2,51.3,47.3,45.1,88,82,64,29.95,29.86,6,1,6,0.00
2013-6-17,75.7,63.5,51.6,56.8,50.9,45.0,84,65,47,29.95,29.88,6,1,8,0.00
2013-6-18,76.5,66.1,54.9,62.2,56.7,49.5,85,72,60,29.96,29.88,5,0,5,0.00
2013-6-19,89.4,70.8,57.9,66.8,59.8,53.4,90,70,41,29.96,29.90,3,0,6,0.00
2013-6-20,76.6,66.8,57.0,63.7,58.9,52.2,85,76,60,29.94,29.78,7,1,8,0.00
2013-6-21,79.3,63.5,55.0,63.4,56.7,51.1,90,79,55,29.87,29.76,7,2,8,0.00
2013-6-22,67.8,58.6,52.5,58.5,52.2,49.3,92,80,63,29.86,29.65,14,4,17,0.08
2013-6-23,69.1,60.1,52.3,55.7,51.8,47.6,89,75,58,30.01,29.65,14,3,14,0.00
2013-6-24,69.9,58.3,46.9,50.3,46.8,43.3,89,67,47,30.28,30.02,7,1,7,0.00
2013-6-25,77.2,67.4,51.4,52.9,48.4,39.8,80,52,35,30.40,30.28,5,0,6,0.00
2013-6-26,79.5,62.3,19.2,57.3,47.4,9.7,86,61,40,30.42,30.34,5,0,5,0.00
2013-6-27,80.1,63.2,50.6,54.7,49.7,43.6,83,63,40,30.37,30.17,7,0,7,0.04
2013-6-28,76.6,64.2,54.5,64.8,57.3,49.4,89,79,65,30.17,30.03,7,1,8,0.04
2013-6-29,80.8,67.1,55.2,56.3,52.0,48.6,86,61,38,30.23,30.06,5,1,6,0.00
2013-6-30,86.9,70.2,55.9,63.2,56.5,48.8,88,64,41,30.23,30.06,8,2,12,0.00
2013-7-1,79.0,65.1,54.3,55.5,50.6,44.5,84,62,39,30.07,29.97,7,1,11,0.00
2013-7-2,67.3,59.2,49.1,54.3,50.2,43.0,84,72,58,29.99,29.65,10,1,12,0.00
2013-7-3,77.7,65.0,55.6,62.0,56.3,50.2,92,75,54,30.00,29.60,10,1,11,0.06
2013-7-4,86.5,66.6,51.3,63.9,56.6,47.7,89,72,46,30.24,30.00,8,2,10,0.00
2013-7-5,86.7,67.7,49.1,61.5,54.0,45.4,89,65,38,30.40,30.24,3,0,4,0.00
2013-7-6,91.3,69.2,48.9,62.9,54.1,43.0,87,62,35,30.40,30.32,5,0,7,0.00
2013-7-7,91.2,74.6,55.6,63.5,56.8,49.4,85,57,32,30.49,30.40,7,0,8,0.00
2013-7-8,89.1,71.2,54.1,61.6,54.9,46.2,83,59,38,30.50,30.40,7,1,7,0.00
2013-7-9,87.3,70.7,54.3,53.9,48.8,44.3,79,50,26,30.43,30.24,6,1,8,0.00
2013-7-10,60.4,55.7,51.6,44.5,43.3,42.0,74,63,56,30.26,30.25,0,0,0,0.00
2013-7-11,57.0,56.7,56.3,48.3,48.0,47.7,74,73,71,30.25,30.25,0,0,2,0.00
2013-7-12,84.0,67.0,52.0,61.4,53.1,45.7,81,63,42,30.29,30.19,6,0,7,0.00
2013-7-13,97.1,76.5,56.1,68.4,60.1,50.2,86,60,35,30.23,30.18,3,0,6,0.00
2013-7-14,93.4,84.2,65.4,66.0,59.9,54.0,71,45,35,30.23,30.16,5,1,5,0.00
2013-7-15,95.7,76.7,58.7,57.7,52.7,48.9,75,47,23,30.22,30.16,0,0,0,0.00
2013-7-16,97.3,78.3,59.4,63.6,57.2,49.7,79,52,30,30.21,30.14,6,0,6,0.00
2013-7-17,96.4,77.0,59.1,64.5,57.1,49.7,76,53,32,30.26,30.18,1,0,2,0.00
2013-7-18,93.1,75.1,59.7,61.6,56.5,50.6,77,55,34,30.30,30.24,6,1,9,0.00
2013-7-19,90.7,72.5,55.0,62.3,54.4,45.7,74,55,35,30.30,30.18,9,1,13,0.00
2013-7-20,82.0,70.3,59.5,61.8,58.0,54.0,84,66,49,30.24,30.13,7,1,8,0.00
2013-7-21,86.6,72.3,62.2,63.9,58.7,52.8,78,64,45,30.16,30.01,6,1,7,0.00
2013-7-22,99.0,78.4,62.4,68.8,61.6,56.5,85,60,32,30.05,29.93,7,0,8,0.00
2013-7-23,82.2,71.9,62.8,64.4,59.0,55.4,78,64,52,29.95,29.88,6,1,10,0.00
2013-7-24,86.9,71.3,55.9,63.0,58.0,51.7,89,65,41,29.97,29.91,9,2,11,0.00
2013-7-25,82.0,69.6,57.2,68.3,59.6,50.4,89,72,47,29.93,29.86,7,1,11,0.30
2013-7-26,88.5,69.0,51.3,61.5,54.9,47.5,89,64,39,29.91,29.84,6,1,7,0.00
2013-7-27,91.9,68.3,52.3,62.8,55.4,45.9,87,66,34,29.85,29.58,6,0,8,0.18
2013-7-28,76.9,66.3,56.8,61.1,57.2,53.9,92,74,54,29.77,29.59,12,2,15,0.14
2013-7-29,77.6,65.6,57.9,62.3,57.6,53.6,93,77,51,29.96,29.76,18,2,19,0.08
2013-7-30,76.6,64.2,55.4,66.1,59.2,52.5,92,84,65,29.97,29.84,7,1,8,0.12
2013-7-31,79.0,67.9,59.5,66.2,60.7,55.8,89,78,62,29.99,29.94,12,2,12,0.00
2013-8-1,78.4,67.1,59.7,62.0,59.7,56.5,89,78,56,29.94,29.70,3,0,7,0.00
2013-8-2,82.2,69.8,61.0,66.2,58.7,54.2,86,69,44,29.82,29.73,12,2,13,0.08
2013-8-3,66.0,59.0,56.3,59.3,55.8,53.5,93,89,78,29.93,29.80,7,1,8,0.02
2013-8-8,85.0,76.8,64.8,60.4,54.1,51.2,62,46,35,30.10,30.08,6,2,8,0.02
2013-8-13,75.7,64.7,51.4,54.8,51.9,47.4,86,65,44,30.20,30.15,7,0,8,0.02
2013-8-14,80.8,62.1,46.6,59.0,52.9,43.4,91,74,44,30.21,30.13,9,1,10,0.06
2013-8-15,77.7,68.7,60.3,64.3,60.6,55.2,93,76,59,30.13,30.00,12,2,14,0.00
2013-8-16,77.5,66.6,59.5,65.1,60.3,54.9,91,81,64,30.00,29.92,9,1,11,0.02
2013-8-17,71.4,61.9,53.4,59.3,56.0,51.2,94,82,61,29.98,29.72,12,2,14,0.02
2013-8-18,81.0,66.8,57.4,61.0,57.8,50.5,92,75,45,29.89,29.71,12,2,12,0.00
2013-8-19,79.4,67.0,53.8,57.3,52.8,45.1,82,62,43,30.28,29.90,3,1,5,0.00
2013-8-20,83.5,66.9,48.4,55.4,50.0,43.0,83,57,36,30.33,30.27,6,1,9,0.00
2013-8-21,85.5,66.8,48.9,58.4,52.1,42.6,88,62,37,30.29,30.13,10,1,13,0.00
2013-8-22,80.6,66.7,60.1,68.3,60.3,54.3,90,80,63,30.15,30.04,5,0,6,0.55
2013-8-23,87.8,69.9,55.0,65.7,59.0,52.8,93,71,43,30.04,29.84,7,0,7,0.00
2013-8-24,70.9,63.4,57.7,65.5,58.9,53.8,90,85,78,29.86,29.80,2,0,7,0.34
2013-8-25,79.0,63.4,54.1,64.8,56.9,50.4,92,80,56,30.03,29.82,5,1,9,0.10
2013-8-26,74.1,63.2,59.7,64.2,58.4,56.2,90,85,67,30.08,30.03,3,1,5,0.00
2013-8-28,82.6,71.8,58.6,57.3,53.1,49.6,72,53,39,30.17,30.14,2,0,3,0.00
2013-8-29,81.7,64.6,53.2,59.9,53.8,46.6,89,70,42,30.18,30.11,7,0,8,0.00
2013-8-30,82.0,66.2,53.6,62.2,56.9,50.1,91,74,47,30.13,30.03,8,2,9,0.00
2013-8-31,75.4,62.9,51.1,56.1,48.6,38.9,89,62,38,30.38,30.10,8,1,10,0.00
2013-9-1,76.8,59.0,43.0,53.2,46.0,37.4,84,64,41,30.44,30.32,10,1,12,0.00
2013-9-2,84.7,65.5,49.3,62.2,54.0,46.2,91,69,46,30.34,30.26,8,1,8,0.00
2013-9-3,84.0,67.0,52.3,64.8,56.7,47.9,90,71,49,30.34,30.24,0,0,0,0.00
2013-9-4,88.0,73.0,50.4,65.4,57.3,46.9,90,60,38,30.20,29.98,3,0,4,0.00
2013-9-5,90.3,68.6,51.6,65.0,54.6,46.0,89,64,39,29.98,29.75,5,0,5,0.00
2013-9-6,69.1,60.6,52.0,59.3,52.1,47.2,84,74,61,29.82,29.69,7,1,8,0.04
2013-9-7,59.2,50.3,46.9,53.4,46.3,42.4,90,86,81,30.03,29.81,2,0,2,0.00
2013-9-8,65.1,52.1,41.5,54.6,46.4,38.8,92,82,56,30.06,30.01,6,0,6,0.18
2013-9-9,62.8,52.2,43.5,57.5,49.3,40.7,94,90,82,30.04,29.94,6,0,6,0.22
2013-9-10,69.1,55.7,45.0,55.9,48.7,43.0,94,78,59,30.14,30.04,3,0,7,0.00
2013-9-11,59.7,55.2,52.3,51.9,50.1,46.7,89,83,74,30.14,30.09,3,0,5,0.08
2013-9-12,75.2,61.0,53.6,61.4,55.0,50.4,93,82,60,30.10,30.05,3,0,4,0.06
2013-9-13,75.4,63.4,59.5,66.9,60.0,57.1,94,89,72,30.05,29.85,3,0,5,0.85
2013-9-14,60.4,52.8,43.9,57.3,49.4,41.4,93,88,76,30.06,29.86,9,0,10,0.12
2013-9-15,59.2,49.9,40.3,57.1,46.7,32.1,94,89,66,30.05,29.54,13,2,17,0.08
2013-9-16,63.3,50.7,42.6,50.4,43.2,38.2,92,76,56,29.63,29.56,12,2,59,0.04
2013-9-17,58.3,52.0,42.4,55.6,47.6,38.7,92,85,70,29.64,29.32,10,1,10,0.20
2013-9-18,66.2,55.8,45.3,55.3,49.6,40.5,92,81,60,29.86,29.39,5,0,8,0.02
2013-9-19,62.4,53.3,42.4,58.8,49.2,39.7,91,86,68,29.90,29.73,9,2,12,0.02
2013-9-20,72.1,56.4,46.9,56.3,49.3,44.6,93,79,55,30.18,29.86,3,0,5,0.00
2013-9-21,70.3,57.5,46.6,60.5,52.7,43.2,92,84,70,30.30,30.17,7,0,7,0.00
2013-9-22,68.7,62.4,56.1,62.2,59.3,53.8,94,90,79,30.37,30.29,1,0,2,0.00
2013-9-23,51.6,50.8,50.0,49.0,48.3,47.6,92,91,91,30.12,30.10,0,0,0,0.00
2013-9-24,75.4,57.9,46.6,64.2,53.5,44.4,95,86,66,30.10,29.92,3,0,4,0.00
2013-9-25,78.5,63.2,53.4,64.5,57.1,50.9,93,82,58,29.92,29.81,2,0,5,0.04
2013-9-26,73.2,61.3,51.4,58.3,53.6,46.7,89,77,53,30.05,29.89,5,0,5,0.00
2013-9-27,68.7,56.0,46.6,55.2,49.3,44.1,93,79,59,30.04,29.91,5,1,5,0.00
2013-9-28,68.5,58.0,50.7,59.2,52.4,47.0,92,82,66,29.90,29.71,7,1,8,0.00
2013-9-29,68.5,59.7,54.9,56.6,52.9,51.1,88,78,65,29.72,29.68,6,1,9,0.02
2013-9-30,62.8,57.3,53.5,56.5,52.7,50.3,90,85,79,29.70,29.66,1,0,3,0.00
2013-10-3,64.6,63.1,62.4,61.4,60.2,59.7,93,90,86,29.74,29.70,1,0,2,0.00
2013-10-4,70.9,63.4,55.7,62.6,58.8,52.9,94,85,72,29.92,29.67,10,2,13,0.02
2013-10-5,70.7,61.9,54.2,60.3,55.1,50.8,91,79,69,30.25,30.11,2,0,4,0.02
2013-10-6,65.7,48.9,41.9,52.8,45.4,39.7,93,88,63,30.30,30.24,2,0,3,0.00
2013-10-7,71.2,59.2,48.7,59.2,53.5,47.0,95,83,63,30.30,30.24,9,1,9,0.00
2013-10-8,61.0,59.8,58.6,57.4,56.5,55.4,90,89,87,30.25,30.23,3,1,5,0.00
2013-10-9,66.6,55.9,43.2,57.0,49.6,36.9,92,80,64,30.23,29.99,7,1,8,0.00
2013-10-10,57.9,47.6,41.0,43.7,39.1,36.2,85,73,57,30.14,30.01,9,1,9,0.00
2013-10-11,53.8,46.7,45.7,50.0,40.4,39.1,87,79,76,30.06,29.97,5,1,7,0.02
2013-10-12,62.9,52.7,43.9,51.3,47.2,39.7,92,82,61,30.12,29.96,9,1,14,0.06
2013-10-13,51.4,49.2,46.0,49.5,47.1,43.3,93,92,90,30.01,29.77,5,1,5,0.51
2013-10-26,60.4,58.3,55.2,56.2,54.4,51.7,90,87,83,29.68,29.49,16,2,17,0.12
2013-10-27,62.1,56.7,52.4,54.4,51.0,49.7,93,82,67,29.49,29.21,15,4,17,0.53
2013-10-28,59.4,52.4,43.7,57.9,48.6,41.1,95,87,72,29.60,28.90,20,4,21,0.55
2013-10-29,56.5,45.9,38.1,48.1,41.5,35.7,94,85,67,30.08,29.60,9,2,11,0.00
2013-10-30,57.0,46.9,34.5,50.9,43.1,32.7,94,87,74,30.19,30.07,7,1,7,0.00
2013-10-31,55.9,53.8,52.3,52.7,50.9,49.2,94,90,85,30.07,29.95,8,1,14,0.06
2013-11-1,60.0,53.9,50.7,55.4,50.7,47.9,92,89,82,29.95,29.55,7,1,10,0.04
2013-11-2,58.8,51.1,46.0,53.4,46.6,41.4,95,85,73,29.59,29.40,17,3,17,0.02
2013-11-3,54.1,46.6,42.6,44.2,41.0,38.0,92,81,67,29.60,29.04,14,3,17,0.29
2013-11-4,50.2,42.7,36.3,44.7,39.5,33.7,94,89,77,29.51,29.01,9,1,9,0.22
2013-11-5,54.0,46.0,35.8,50.3,42.7,33.7,95,88,73,29.54,29.26,10,1,12,0.24
2013-11-6,59.8,53.7,47.1,56.4,50.5,43.2,93,89,85,29.56,29.48,15,3,16,0.06
2013-11-7,57.6,49.0,41.4,54.5,45.1,39.1,93,87,73,29.79,29.53,6,1,9,0.02
2013-11-8,53.8,43.0,36.7,52.1,41.2,34.6,95,93,92,29.79,29.59,10,0,14,0.41
2013-11-9,47.1,39.9,33.1,46.0,38.6,31.5,96,95,94,29.80,29.62,3,0,6,0.20
2013-11-10,46.3,38.9,32.2,43.2,37.1,30.0,96,93,86,30.29,29.64,3,0,4,0.02
2013-11-11,53.8,47.2,32.4,52.4,45.8,30.6,95,95,93,30.28,30.16,5,0,7,0.12
2013-11-12,54.7,48.7,33.3,52.9,46.6,31.5,96,92,84,30.55,30.17,3,0,7,0.08
2013-11-13,45.5,38.3,31.6,41.7,36.1,29.8,93,92,86,30.56,30.23,3,0,5,0.00
2013-11-14,49.8,43.5,37.0,43.9,39.4,34.4,92,85,74,30.44,30.14,8,1,10,0.00
2013-11-15,48.0,38.0,30.7,40.8,34.5,28.6,92,87,75,30.56,30.44,6,0,7,0.00
2013-11-16,48.0,38.2,27.5,45.9,35.8,25.5,94,91,87,30.56,30.40,3,0,3,0.00
2013-11-17,50.2,46.4,43.7,47.0,43.8,41.5,93,91,87,30.40,30.03,1,0,2,0.00
2013-11-18,52.2,46.4,41.2,48.5,44.0,38.9,94,91,85,30.03,29.77,2,0,5,0.02
2013-11-19,41.7,35.0,25.7,39.8,31.8,23.4,93,88,78,30.08,29.81,6,0,7,0.00
2013-11-20,45.1,35.7,24.4,42.4,33.4,22.2,93,91,89,30.06,29.41,9,1,14,0.16
2013-11-21,45.7,40.0,33.8,39.7,36.4,30.9,94,87,75,29.95,29.42,9,2,14,0.02
2013-11-22,44.6,38.7,34.4,38.3,34.9,31.8,92,86,75,30.18,29.94,10,1,13,0.00
2013-11-23,44.8,39.0,30.7,41.0,36.1,28.7,94,89,82,30.33,30.17,6,0,8,0.00
2013-11-24,47.8,42.7,38.1,43.2,38.7,34.6,88,86,80,30.58,30.33,8,1,8,0.00
2013-11-25,45.5,41.2,37.9,40.0,37.0,34.6,90,85,78,30.70,30.58,3,0,6,0.00
2013-11-26,44.0,38.7,29.5,38.8,34.5,26.6,92,85,81,30.74,30.59,1,0,3,0.00
2013-11-27,52.7,45.9,41.5,48.6,42.8,37.2,91,89,84,30.59,30.50,1,0,2,0.00
2013-11-28,50.9,47.4,45.1,46.8,44.4,42.4,91,89,85,30.58,30.53,1,0,2,0.00
2013-11-29,50.5,45.7,40.5,44.3,41.0,36.2,91,84,76,30.54,30.19,7,1,11,0.00
2013-11-30,48.0,40.9,32.2,41.5,36.1,29.6,90,83,77,30.48,30.20,5,0,7,0.00
2013-12-1,49.8,40.5,29.7,44.5,37.5,27.1,93,89,81,30.57,30.47,2,0,3,0.00
2013-12-2,44.4,43.3,40.0,42.2,40.5,37.0,92,90,83,30.59,30.46,1,0,2,0.00
2013-12-3,42.4,41.4,39.9,39.1,37.1,34.6,90,85,80,30.46,30.34,2,0,4,0.00
2013-12-4,48.0,39.5,27.3,43.4,35.2,25.0,91,85,72,30.52,30.31,5,0,5,0.00
2013-12-5,49.8,39.2,27.0,43.5,34.8,24.5,94,84,76,30.50,30.06,22,2,26,0.02
2013-12-6,45.5,39.2,32.2,40.9,34.2,28.7,87,82,74,30.41,30.26,5,1,6,0.00
2013-12-7,45.7,44.8,44.2,42.7,42.1,41.4,91,90,88,30.30,30.28,5,1,7,0.00
2013-12-8,51.3,43.8,36.7,46.1,40.9,34.5,93,89,82,30.33,30.26,10,1,11,0.00
2013-12-9,50.2,40.5,30.2,48.5,38.7,28.4,96,93,90,30.43,30.32,5,0,6,0.00
2013-12-10,46.6,35.7,28.2,45.2,34.1,26.7,96,94,92,30.49,30.42,2,0,2,0.00
2013-12-11,32.7,29.6,26.4,31.3,28.1,24.7,95,94,93,30.47,30.32,0,0,0,0.00
2013-12-12,46.9,37.1,25.7,45.9,35.7,24.0,96,95,93,30.33,30.21,3,0,3,0.00
2013-12-13,53.2,48.6,42.3,49.5,46.7,40.4,96,93,86,30.21,30.03,5,1,6,0.06
2013-12-14,51.3,44.4,34.2,48.1,41.7,32.3,95,90,81,30.31,30.07,10,2,14,0.04
2013-12-15,52.9,50.0,38.8,51.5,48.4,36.7,95,94,90,30.18,30.00,8,2,13,0.24
2013-12-16,54.7,51.1,44.6,52.6,49.4,43.0,95,94,91,30.13,29.95,10,2,13,0.40
2013-12-17,44.8,41.7,38.5,43.2,40.0,36.9,95,94,93,30.29,29.99,5,0,5,0.20
2013-12-18,49.1,45.0,36.5,47.3,43.3,34.9,96,94,90,30.00,29.29,12,3,16,0.34
2013-12-19,46.6,40.6,34.9,44.9,37.7,33.1,94,89,77,29.87,29.32,7,2,11,0.16
2013-12-20,50.4,41.5,32.2,45.5,38.4,30.6,95,89,82,30.20,29.88,10,2,13,0.00
2013-12-21,51.6,49.5,46.2,49.5,47.3,41.7,95,92,82,30.07,29.71,12,3,13,0.34
2013-12-22,49.8,43.8,36.7,44.3,39.2,32.9,92,84,72,29.94,29.74,16,2,18,0.00
2013-12-23,43.9,42.1,35.8,42.3,40.2,33.3,94,93,88,29.94,28.86,3,0,5,0.00
2013-12-24,47.8,42.9,38.8,42.3,40.8,36.4,94,92,79,28.98,28.78,5,0,6,0.10
2013-12-25,42.6,37.2,33.3,41.6,35.8,31.7,96,95,93,29.17,28.92,3,0,6,0.04
2013-12-26,44.1,36.9,34.0,42.7,35.9,32.7,97,96,94,29.50,29.17,17,1,17,0.02
2013-12-27,51.3,47.5,42.6,50.2,43.4,37.5,96,86,77,29.26,29.00,17,5,17,0.18
2013-12-28,45.1,35.8,29.5,39.7,33.0,27.7,94,89,81,29.72,29.26,5,0,5,0.00
2013-12-29,45.1,35.4,28.0,43.2,33.7,26.3,96,93,87,30.09,29.72,5,1,6,0.00
2013-12-30,49.8,45.5,36.3,48.0,43.2,34.8,94,92,86,30.00,29.67,16,3,19,0.16
2013-12-31,51.1,45.0,37.5,48.2,43.3,35.9,96,94,89,29.85,29.55,10,2,14,0.16
2014-1-1,50.5,46.1,41.7,49.2,44.6,40.1,96,95,92,29.58,29.03,14,3,16,0.36
2014-1-2,49.6,44.2,40.8,47.4,42.7,39.5,95,94,92,29.46,29.06,10,3,13,0.20